Content
SEND FEEDBACK

Daily
Averages
Monthly
Summary
United Kingdom

LONDON, ENGLAND


Home > Europe > United Kingdom > England
Elevation: 203 feet     Latitude: 51 09N     Longitude: 000 11W

WEATHER
 
SELECT A DAY
Number of Records: 294,488;   Date Range: 7/1/96 - 9/16/14
 
SHARE

PRINT THIS DATA

[ ← Previous Day ]
WEATHER ALMANAC - MARCH 28, 2013
[ Next Day → ]
[ °C ]   °F
Weather ElementAverageHighLow
Temperature35.1 °F41 °F (10:20 am)30.2 °F (1:20 am)
Dewpoint24.1 °F28.4 °F (7:50 am)19.4 °F (6:20 pm)
Humidity65.2 %87 % (7:50 am)48 % (6:20 pm)
Barometer29.87 in29.95 in (7:50 pm)29.83 in (1:50 am)
Wind Speed9.2 mph17.3 mph (12:20 pm)
Wind Gust26.5 mph (10:50 am)
Weather ElementAverage
Visibility5.9 mi
Wind DirectionENE (52.3 °)

Weather ElementTotal
Precipitation---
Heating Degree Days29.4 (Base 65)
Averaged from 47 records on March 28, 2013
WEATHER CONDITIONS BREAKOUT
WIND DIRECTION BREAKOUT
WEATHER BY HOUR - MARCH 28, 2013
[ °C ]   °F
Local TimeTemperatureDewpointHumidityBarometerVisibilityWind DirectionWind SpeedGust SpeedPrecipitationEventsConditions
12:50 AM32.0 °F23.0 °F69 %29.86 in6.2 miNorth (10°)5.8 mphPartly Cloudy
1:20 AM30.2 °F24.8 °F80 %29.86 in6.2 miNorth (10°)6.9 mphPartly Cloudy
1:50 AM30.2 °F24.8 °F80 %29.83 inNorth (10°)5.8 mphClear
2:20 AM30.2 °F24.8 °F80 %29.83 in5.6 miNNE (20°)4.6 mphPartly Cloudy
2:50 AM30.2 °F24.8 °F80 %29.83 in5.6 miNorth (10°)4.6 mphPartly Cloudy
3:20 AM30.2 °F24.8 °F80 %29.83 in5.6 miVariable2.3 mphPartly Cloudy
3:50 AM30.2 °F24.8 °F80 %29.83 in5.6 miNorth (350°)3.5 mphScattered Clouds
4:20 AM30.2 °F24.8 °F80 %29.83 in5.6 miNNW (340°)3.5 mphScattered Clouds
4:50 AM30.2 °F26.6 °F86 %29.83 in5.6 miNNW (340°)3.5 mphScattered Clouds
5:20 AM32.0 °F26.6 °F80 %29.83 in5.6 miNorth (10°)4.6 mphMostly Cloudy
5:50 AM32.0 °F26.6 °F80 %29.83 in5.0 miNorth (10°)5.8 mphMostly Cloudy
6:20 AM32.0 °F26.6 °F80 %29.83 in4.3 miNorth (10°)6.9 mph
6:50 AM32.0 °F26.6 °F80 %29.83 in4.3 miNNE (20°)5.8 mph
7:20 AM32.0 °F26.6 °F80 %29.83 in4.3 miNorth (10°)5.8 mph
7:50 AM32.0 °F28.4 °F87 %29.83 in4.3 miNNE (30°)4.6 mph
8:20 AM35.6 °F28.4 °F75 %29.83 in5.0 miNNE (20°)8.1 mph
8:50 AM37.4 °F28.4 °F70 %29.86 in5.6 miNE (40°)9.2 mph
9:20 AM37.4 °F28.4 °F70 %29.86 in6.2 miNE (50°)11.5 mphPartly Cloudy
9:50 AM37.4 °F28.4 °F70 %29.86 in6.2 miNE (50°)15.0 mphScattered Clouds
10:20 AM41.0 °F28.4 °F61 %29.86 in6.2 miENE (60°)13.8 mphScattered Clouds
10:50 AM39.2 °F26.6 °F61 %29.86 in6.2 miNE (50°)13.8 mph26.5 mphScattered Clouds
11:20 AM39.2 °F26.6 °F61 %29.86 in6.2 miENE (60°)12.7 mphScattered Clouds
11:50 AM37.4 °F26.6 °F65 %29.86 in6.2 miENE (60°)11.5 mphScattered Clouds
12:20 PM37.4 °F26.6 °F65 %29.86 in6.2 miNE (50°)17.3 mphScattered Clouds
12:50 PM39.2 °F26.6 °F61 %29.89 in6.2 miENE (60°)13.8 mphScattered Clouds
1:20 PM39.2 °F24.8 °F56 %29.89 in6.2 miNE (40°)13.8 mphScattered Clouds
1:50 PM37.4 °F24.8 °F60 %29.89 in6.2 miNE (50°)13.8 mphScattered Clouds
2:20 PM37.4 °F23.0 °F56 %29.89 in6.2 miNE (40°)12.7 mphMostly Cloudy
2:50 PM37.4 °F24.8 °F60 %29.89 in6.2 miNE (40°)11.5 mphMostly Cloudy
3:20 PM37.4 °F24.8 °F60 %29.89 in6.2 miNE (50°)11.5 mphMostly Cloudy
3:50 PM37.4 °F23.0 °F56 %29.89 in6.2 miNNE (30°)9.2 mphMostly Cloudy
4:20 PM39.2 °F21.2 °F49 %29.89 in6.2 miNNE (20°)13.8 mphMostly Cloudy
4:50 PM39.2 °F21.2 °F49 %29.89 in6.2 miNNE (20°)11.5 mphMostly Cloudy
5:20 PM37.4 °F21.2 °F52 %29.89 in6.2 miNNE (30°)12.7 mphOvercast
5:50 PM37.4 °F21.2 °F52 %29.89 in6.2 miNNE (30°)12.7 mphScattered Clouds
6:20 PM37.4 °F19.4 °F48 %29.92 in6.2 miNE (40°)10.4 mphMostly Cloudy
6:50 PM35.6 °F19.4 °F52 %29.92 in6.2 miNE (40°)11.5 mphMostly Cloudy
7:20 PM35.6 °F19.4 °F52 %29.92 in6.2 miNE (40°)8.1 mphMostly Cloudy
7:50 PM35.6 °F19.4 °F52 %29.95 in6.2 miNE (40°)10.4 mphMostly Cloudy
8:20 PM35.6 °F21.2 °F56 %29.95 in6.2 miNNE (30°)8.1 mphMostly Cloudy
8:50 PM35.6 °F21.2 °F56 %29.92 in6.2 miNE (40°)10.4 mphMostly Cloudy
9:20 PM35.6 °F21.2 °F56 %29.92 in6.2 miNNE (30°)8.1 mphMostly Cloudy
9:50 PM35.6 °F21.2 °F56 %29.92 in6.2 miNE (40°)12.7 mphMostly Cloudy
10:20 PM35.6 °F21.2 °F56 %29.92 in6.2 miNE (50°)9.2 mphMostly Cloudy
10:50 PM33.8 °F19.4 °F56 %29.92 in6.2 miNNE (30°)8.1 mphMostly Cloudy
11:20 PM33.8 °F19.4 °F56 %29.92 in6.2 miNNE (30°)5.8 mphMostly Cloudy
11:50 PM33.8 °F19.4 °F56 %29.92 in6.2 miNNE (20°)6.9 mphMostly Cloudy
Hourly data recorded from EGKK, located miles away from London, England







STORIES FROM OUR PARTNERS